Location: Broekland
(52.3610°N, 6.2005°E)
Time: 01:23:36
(UTC+00:00)

Meteor 1-14 Rocket - Pass Details

Date: 19 May 2025
Orbit: 833 x 917 km, 81.3° (Epoch: 23 June)

Event Time Altitude Azimuth Distance (km) Brightness Sun altitude
Rises 21:11:23 0° 347° (NNW) 3,407 8.8 -11.5°
Reaches altitude 10° 21:13:48 10° 350° (N) 2,475 7.8 -11.7°
Maximum altitude 21:19:24 74° 75° (ENE) 892 4.3 -12.2°
Enters shadow 21:23:55 17° 159° (SSE) 2,064 5.6 -12.5°
